Tracking 17150 objects as of 5-August-2015
HD Live streaming from Space Station

ATLAS 55E R/B

Track ATLAS 55E R/B now!
10-day predictions
ATLAS 55E R/B is classified as:


NORAD ID: 16137
Int'l Code: 1985-093B
Perigee: 877.5 km
Apogee: 20,417.9 km
Inclination: 63.6 °
Period: 368.3 minutes
Semi major axis: 17018 km
RCS: 2.2883 m2 (large)
Launch date: October 9, 1985
Source: United States (US)

Note: This is a ROCKET BODY
Your satellite tracking list
Your tracking list is empty





NASA's NSSDC Master Catalog

Two Line Element Set (TLE):
1 16137U 85093B   15216.81951105  .00000018  00000-0  00000+0 0  9996
2 16137 063.6058 204.0448 5740858 001.0989 270.4788 03.91032538425904

Source of the keplerian elements: AFSPC

N2YO: 211